Weather in Sanamer

Russia / Stavropol Krai     44°04′24″N   42°51′11″E
temp.,
°C
wind,
m/s
gust,
m/s
humid.,
%
clouds,
%
prec.,
mm/h
press.,
hPa
HPBL,
m
18 april, sun
sun1800:00+6e1294100 0.0 1022115
03:00+6ese2296100 0.0 102030
06:00+7ese1192100 0.0 101833
09:00+10e2280100 0.0 1017376
12:00+15e336699 0.7 1014521
15:00+15ene2172100 2.4 1015517
18:00+12e238985 3.4 1016233
21:00+11ese2394100 4.9 101688
19 april, mon
mon1900:00+10s1191100 0.0 101611
03:00+11wnw3379100 0.0 101638
06:00+11s1176100 0.1 101610
09:00+13e3380100 0.3 1016298
12:00+16e5666100 0.0 10141022
15:00+16e677376 0.3 1014863
18:00+14ese3685100 1.3 1014361
21:00+12sse2289100 2.2 101432
20 april, tue
tue2000:00+12s228294 0.0 101212
03:00+11se3277100 0.0 101122
06:00+12sse4468100 0.1 100765
09:00+18se3459100 0.1 1005122
12:00+18e3463100 0.0 1005148
15:00+15ese1277100 0.0 100541
18:00+16e2381100 0.2 100671
21:00+13nw3596100 0.9 1011325
21 april, wed
wed2100:00+9nw2481100 0.7 1013542
03:00+9ene0176100 0.7 1015196
06:00+9ese2381100 0.1 1016205
09:00+8e3785100 0.1 1018617
12:00+8e4686100 0.1 1019715
15:00+7ne2596100 0.3 1021660
18:00+7ne2397100 0.4 1022342
21:00+6e3798100 0.7 1023647
22 april, thu
thu2200:00+6e2499100 0.1 1022319
03:00+7ese2394100 0.5 1022137
06:00+6ese2493100 0.0 1022210
09:00+7e3387100 0.4 1022348
12:00+8e3486100 0.2 1023523
15:00+7ese2386100 0.4 1023355
18:00+8e2184100 0.0 1023283
21:00+6ssw119265 0.0 102424